Tiempo atmosférico en la estación meteorológica de Monforte De Lemos, Lugo (291 m.)



Fecha
DESCASC
Temp. máxima en grados centígrados (hora)
DESCASC
Temp. mínima en grados centígrados (hora)
DESCASC
Temp. media en grados centígrados
DESCASC
Racha de viento máxima en m/sg (hora)
DESCASC
Velocidad máxima media en intervalos de 10 minutos(hora)
DESCASC
Precipitaciones diarias en mm
DESCASC
Precipitaciones de 00:00 a 06:00 en mm
DESCASC
Precipitaciones de 06:00 a 12:00 en mm
DESCASC
Precipitaciones de 12:00 a 18:00 en mm
DESCASC
Precipitaciones de 18:00 a 24:00 en mm
DESCASC
08-12-2019 12.7 (16:30) 4.2 (23:59) 8.4 2.22 (15:50) 0.83 (15:50) 4.8 0.2 4.2 0.2 0.2
07-12-2019 12.4 (16:20) 3.2 (00:00) 7.8 1.67 (01:40) 0.83 (01:40) 0.2 0 0 0 0.2
06-12-2019 10.2 (16:20) 0.7 (00:40) 5.4 1.94 (15:50) 0.56 (09:50) 0 0 0 0 0
05-12-2019 7.1 (16:40) -1.8 (-00:0) 2.6 1.67 (15:30) 0.56 (15:50) 0 0 0 0 0
04-12-2019 9.4 (16:30) -1.5 (-00:0) 3.9 1.67 (13:20) 0.83 (06:30) 0 0 0 0 0
03-12-2019 3.2 (00:00) -1.4 (-00:0) 0.9 2.22 (23:30) 0.83 (23:30) 0 0 0 0 0
02-12-2019 13.9 (14:10) 1.2 (00:00) 7.5 10.56 (16:20) 5.28 (15:00) 0 0 0 0 0
01-12-2019 14 (16:00) 6.8 (00:00) 10.4 11.39 (14:30) 5 (14:30) 6 4.8 1.2 0 0
30-11-2019 15.4 (14:20) 8.8 (00:00) 12.1 10 (14:20) 4.17 (14:50) 12.4 7.4 2 0 3
29-11-2019 16.7 (16:20) 9.4 (00:00) 13.1 1.67 (07:10) 0.83 (07:10) 1 0 0 0 1
28-11-2019 14.3 (13:00) 11.1 (00:00) 12.7 8.33 (18:20) 3.33 (18:40) -- -- -- -- --
27-11-2019 -- (--) -- (--) -- -- (--) -- (--) -- -- -- -- --
26-11-2019 18 (14:30) 9.7 (00:00) 13.8 13.89 (17:40) 6.39 (17:00) -- -- -- -- --
25-11-2019 16.2 (15:40) 10.5 (00:00) 13.4 7.5 (15:50) 3.61 (15:40) -- -- -- -- --
24-11-2019 -- (--) -- (--) -- -- (--) -- (--) -- -- -- -- --
23-11-2019 -- (--) -- (--) -- -- (--) -- (--) -- -- -- -- --
22-11-2019 14.8 (13:20) 6.6 (00:00) 10.7 11.67 (11:40) 5 (11:50) -- -- -- -- --
21-11-2019 -- (--) -- (--) -- -- (--) -- (--) -- -- -- -- --
20-11-2019 -- (--) -- (--) -- -- (--) -- (--) -- -- -- -- --
19-11-2019 -- (--) -- (--) -- -- (--) -- (--) -- -- -- -- --
18-11-2019 -- (--) -- (--) -- -- (--) -- (--) -- -- -- -- --
17-11-2019 -- (--) -- (--) -- -- (--) -- (--) -- -- -- -- --
16-11-2019 -- (--) -- (--) -- -- (--) -- (--) -- -- -- -- --
15-11-2019 -- (--) -- (--) -- -- (--) -- (--) -- -- -- -- --
14-11-2019 -- (--) -- (--) -- -- (--) -- (--) -- -- -- -- --
13-11-2019 -- (--) -- (--) -- -- (--) -- (--) -- -- -- -- --
12-11-2019 12.9 (22:10) 5 (00:00) 8.9 6.11 (16:50) 2.78 (17:00) -- -- -- -- --
11-11-2019 14.1 (14:20) 4.8 (23:00) 9.5 8.89 (13:20) 4.17 (13:20) -- -- -- -- --

Gráficas

Temp. máximas Temp. mínimas Temp. medias Precipitaciones Rachas de viento máximas Velocidades máximas media en intervalos de 10 minutos

Datos horarios

Fecha y hora oficial Temperatura (ºC) Velocidad del viento (km/h) Dirección del viento Racha (km/h) Dirección de racha Precipitación (mm) Presión (hPa) Tendencia (hPa) Humedad (%)
2019-12-10 23:00:00 6.5 0 Calma 5 Sudoeste 0 -- -- 98
2019-12-10 22:00:00 6.2 0 Calma 5 Sur 0 -- -- 98
2019-12-10 21:00:00 6 0 Calma 3 Sur 0 -- -- 99
2019-12-10 20:00:00 5.5 0 Calma 3 Sur 0 -- -- 96
2019-12-10 19:00:00 6.1 0 Calma 3 Sur 0 -- -- 95
2019-12-10 18:00:00 6.9 0 Calma 5 Sur 0 -- -- 92
2019-12-10 17:00:00 7.8 0 Calma 5 Sur 0 -- -- 89
2019-12-10 16:00:00 7.2 0 Calma 5 Sur 0 -- -- 93
2019-12-10 15:00:00 6.7 0 Calma 5 Sur 0 -- -- 92
2019-12-10 14:00:00 5.6 0 Calma 5 Sur 0 -- -- 95
2019-12-10 13:00:00 4.9 0 Calma 6 Sudeste 0 -- -- 98
2019-12-10 12:00:00 4.3 0 Calma 4 Nordeste 0 -- -- 98
2019-12-10 11:00:00 3.9 0 Calma 4 Nordeste 0 -- -- 99
2019-12-10 10:00:00 3.4 0 Calma 2 Nordeste 0 -- -- 99
2019-12-10 09:00:00 3.2 0 Calma 5 Nordeste 0 -- -- 99
2019-12-10 08:00:00 3.3 0 Calma 5 Nordeste 0 -- -- 99
2019-12-10 07:00:00 3.3 0 Calma 4 Nordeste 0 -- -- 99
2019-12-10 06:00:00 3.3 3 Nordeste 6 Nordeste 0 -- -- 99
2019-12-10 05:00:00 3.6 0 Calma 7 Nordeste 0 -- -- 99
2019-12-10 04:00:00 3.9 0 Calma 5 Este 0 -- -- 99
2019-12-10 03:00:00 4.1 0 Calma 4 Este 0 -- -- 99
2019-12-10 02:00:00 4.1 0 Calma 4 Este 0 -- -- 99
2019-12-10 01:00:00 4 0 Calma 5 Este 0 -- -- 99
2019-12-10 00:00:00 4 0 Calma 5 Este 0 -- -- 98
2019-12-09 23:00:00 4.2 0 Calma 4 Este 0 -- -- 98
2019-12-09 22:00:00 4.3 0 Calma 2 Este 0 -- -- 98
2019-12-09 21:00:00 4.3 0 Calma 2 Este 0 -- -- 94
2019-12-09 20:00:00 5.7 0 Calma 3 Este 0 -- -- 91
2019-12-09 19:00:00 7.5 0 Calma 4 Sur 0 -- -- 91
2019-12-09 18:00:00 9 0 Calma 4 Sur 0 -- -- 91
2019-12-09 17:00:00 9.9 0 Calma 3 Sur 0 -- -- 89
2019-12-09 16:00:00 9.8 0 Calma 4 Sur 0 -- -- 87
2019-12-09 15:00:00 9.4 0 Calma 6 Sur 0 -- -- 89
2019-12-09 14:00:00 9 2 Sur 8 Sur 0 -- -- 88
2019-12-09 13:00:00 8.7 0 Calma 6 Sudoeste 0 -- -- 91
2019-12-09 12:00:00 6.8 0 Calma 4 Oeste 0 -- -- 96
2019-12-09 11:00:00 5.5 0 Calma 4 Oeste 0 -- -- 99
2019-12-09 10:00:00 4.7 0 Calma 6 Noroeste 0 -- -- 100
2019-12-09 09:00:00 4.2 0 Calma 8 Noroeste 0 -- -- 99
2019-12-09 08:00:00 4 0 Calma 5 Noroeste 0 -- -- 99
2019-12-09 07:00:00 4.5 0 Calma 5 Sudoeste 0 -- -- 99
2019-12-09 06:00:00 4.5 0 Calma 4 Noroeste 0 -- -- 100
2019-12-09 05:00:00 4.1 0 Calma 2 Noroeste 0 -- -- 99
2019-12-09 04:00:00 3.6 0 Calma 8 Noroeste 0 -- -- 99
2019-12-09 03:00:00 3.3 2 Noroeste 5 Noroeste 0 -- -- 99
2019-12-09 02:00:00 3.4 0 Calma 4 Noroeste 0 -- -- 98
2019-12-09 01:00:00 3.7 0 Calma 6 Noroeste 0 -- -- 98
2019-12-09 00:00:00 4.2 0 Calma 4 Noroeste 0 -- -- 98
2019-12-08 23:00:00 4.7 0 Calma 3 Noroeste 0 -- -- 95
2019-12-08 22:00:00 6 0 Calma 4 Noroeste 0 -- -- 96
2019-12-08 21:00:00 6.9 0 Calma 3 Noroeste 0 -- -- 96
2019-12-08 20:00:00 8.3 0 Calma 4 Oeste 0.2 -- -- 97
2019-12-08 19:00:00 10 2 Sudoeste 6 Sudoeste 0 -- -- 98
2019-12-08 18:00:00 11.3 0 Calma 4 Noroeste 0 -- -- 94
2019-12-08 17:00:00 12.6 0 Calma 6 Noroeste 0 -- -- 97
2019-12-08 16:00:00 12.5 0 Calma 8 Noroeste 0.2 -- -- 98
2019-12-08 15:00:00 12.3 0 Calma 4 Sudoeste 0 -- -- 98
2019-12-08 14:00:00 11.8 0 Calma 3 Sudoeste 0 -- -- 99
2019-12-08 13:00:00 10.8 0 Calma 5 Sudoeste 0 -- -- 99
2019-12-08 12:00:00 10.2 0 Calma 4 Oeste 0.2 -- -- 99
2019-12-08 11:00:00 9.5 0 Calma 4 Oeste 1.8 -- -- 99
2019-12-08 10:00:00 9 0 Calma 4 Sudoeste 0 -- -- 99
2019-12-08 09:00:00 8.9 0 Calma 2 Oeste 1.2 -- -- 98
2019-12-08 08:00:00 8.8 0 Calma 3 Sudoeste 1 -- -- 98
2019-12-08 07:00:00 8.8 0 Calma 4 Oeste 0 -- -- 98
2019-12-08 06:00:00 8.7 0 Calma 4 Sudoeste 0.2 -- -- 98
2019-12-08 05:00:00 8.6 0 Calma 4 Oeste 0 -- -- 98
2019-12-08 04:00:00 8.6 0 Calma 3 Oeste 0 -- -- 97
2019-12-08 03:00:00 8.5 0 Calma 0 Calma 0 -- -- 97
2019-12-08 02:00:00 8.4 0 Calma 3 Oeste 0 -- -- 97
2019-12-08 01:00:00 8.3 0 Calma 2 Sudoeste 0 -- -- 97
2019-12-08 00:00:00 8.2 0 Calma 2 Oeste 0.2 -- -- 97
2019-12-07 23:00:00 8.1 0 Calma 2 Oeste 0 -- -- 96
2019-12-07 22:00:00 7.9 2 Sudoeste 4 Noroeste 0 -- -- 96
2019-12-07 21:00:00 7.6 0 Calma 4 Oeste 0 -- -- 95
2019-12-07 20:00:00 7.6 0 Calma 0 Calma 0 -- -- 89
2019-12-07 19:00:00 8.9 0 Calma 2 Oeste 0 -- -- 88
2019-12-07 18:00:00 10.2 0 Calma 3 Sudoeste 0 -- -- 86
2019-12-07 17:00:00 12 0 Calma 5 Sudoeste 0 -- -- 79
2019-12-07 16:00:00 11.7 2 Oeste 5 Oeste 0 -- -- 79
2019-12-07 15:00:00 9.7 2 Oeste 4 Oeste 0 -- -- 84
2019-12-07 14:00:00 8.7 0 Calma 4 Oeste 0 -- -- 87
2019-12-07 13:00:00 7.6 0 Calma 4 Noroeste 0 -- -- 92
2019-12-07 12:00:00 5.4 0 Calma 4 Oeste 0 -- -- 99
2019-12-07 11:00:00 4.4 0 Calma 3 Noroeste 0 -- -- 100
2019-12-07 10:00:00 3.7 0 Calma 2 Oeste 0 -- -- 99
2019-12-07 09:00:00 3.5 0 Calma 2 Noroeste 0 -- -- 99
2019-12-07 08:00:00 3.5 0 Calma 4 Oeste 0 -- -- 99
2019-12-07 07:00:00 3.5 2 Noroeste 5 Noroeste 0 -- -- 99
2019-12-07 06:00:00 3.5 0 Calma 0 Calma 0 -- -- 99
2019-12-07 05:00:00 3.4 0 Calma 4 Noroeste 0 -- -- 99
2019-12-07 04:00:00 3.3 0 Calma 5 Oeste 0 -- -- 99
2019-12-07 03:00:00 3.5 0 Calma 4 Sudoeste 0 -- -- 99
2019-12-07 02:00:00 3.2 0 Calma 6 Oeste 0 -- -- 99
2019-12-07 01:00:00 3.3 0 Calma 4 Oeste 0 -- -- 99
2019-12-07 00:00:00 3.2 0 Calma 5 Sudoeste 0 -- -- 99
2019-12-06 23:00:00 2.7 0 Calma 5 Sudoeste 0 -- -- 98
2019-12-06 22:00:00 2 0 Calma 2 Oeste 0 -- -- 94
2019-12-06 21:00:00 2.7 0 Calma 2 Oeste 0 -- -- 92
2019-12-06 20:00:00 3.8 0 Calma 3 Oeste 0 -- -- 90
2019-12-06 19:00:00 5.4 0 Calma 2 Sudoeste 0 -- -- 87
2019-12-06 18:00:00 7.5 0 Calma 2 Sudoeste 0 -- -- 86
2019-12-06 17:00:00 9.5 0 Calma 5 Sudoeste 0 -- -- 81
2019-12-06 16:00:00 9.7 0 Calma 7 Sudoeste 0 -- -- 80
2019-12-06 15:00:00 7.6 0 Calma 6 Sudoeste 0 -- -- 87
2019-12-06 14:00:00 5.7 0 Calma 6 Sudoeste 0 -- -- 94
2019-12-06 13:00:00 4.9 0 Calma 4 Noroeste 0 -- -- 97
2019-12-06 12:00:00 4.4 0 Calma 4 Noroeste 0 -- -- 99
2019-12-06 11:00:00 3.4 0 Calma 4 Noroeste 0 -- -- 99
2019-12-06 10:00:00 3 0 Calma 5 Oeste 0 -- -- 99
2019-12-06 09:00:00 2.9 0 Calma 3 Sudoeste 0 -- -- 99
2019-12-06 08:00:00 2.9 0 Calma 0 Calma 0 -- -- 99
2019-12-06 07:00:00 2.7 0 Calma 3 Sudoeste 0 -- -- 99
2019-12-06 06:00:00 2.4 0 Calma 3 Sudoeste 0 -- -- 99
2019-12-06 05:00:00 2.3 0 Calma 5 Sudoeste 0 -- -- 99
2019-12-06 04:00:00 1.8 0 Calma 4 Sudoeste 0 -- -- 99
2019-12-06 03:00:00 1.4 0 Calma 4 Sudoeste 0 -- -- 99
2019-12-06 02:00:00 1.1 0 Calma 4 Sudoeste 0 -- -- 99
2019-12-06 01:00:00 0.7 2 Sudoeste 4 Sudoeste 0 -- -- 98
2019-12-06 00:00:00 0.9 0 Calma 5 Sudoeste 0 -- -- 98
2019-12-05 23:00:00 0.8 2 Sudoeste 6 Sudoeste 0 -- -- 98
2019-12-05 22:00:00 0.6 0 Calma 4 Sudoeste 0 -- -- 96
2019-12-05 21:00:00 1 0 Calma 4 Sudoeste 0 -- -- 94
2019-12-05 20:00:00 1.6 0 Calma 4 Sudoeste 0 -- -- 93
2019-12-05 19:00:00 3 0 Calma 3 Sudoeste 0 -- -- 90
2019-12-05 18:00:00 4.9 0 Calma 4 Sudoeste 0 -- -- 88
2019-12-05 17:00:00 6.4 0 Calma 3 Sudoeste 0 -- -- 84
2019-12-05 16:00:00 5.9 0 Calma 6 Noroeste 0 -- -- 87
2019-12-05 15:00:00 2.7 0 Calma 4 Noroeste 0 -- -- 97
2019-12-05 14:00:00 2.1 0 Calma 5 Noroeste 0 -- -- 99
2019-12-05 13:00:00 1.4 0 Calma 4 Sudoeste 0 -- -- 99
2019-12-05 12:00:00 0.7 0 Calma 4 Sudoeste 0 -- -- 99
2019-12-05 11:00:00 -0.2 0 Calma 4 Noroeste 0 -- -- 99
2019-12-05 10:00:00 -1.1 0 Calma 3 Noroeste 0 -- -- 99
2019-12-05 09:00:00 -1.5 0 Calma 3 Sudoeste 0 -- -- 98
2019-12-05 08:00:00 -1.6 2 Noroeste 5 Noroeste 0 -- -- 98
2019-12-05 07:00:00 -1.6 0 Calma 5 Oeste 0 -- -- 98
2019-12-05 06:00:00 -1.5 0 Calma 3 Oeste 0 -- -- 97
2019-12-05 05:00:00 -1.5 0 Calma 4 Oeste 0 -- -- 97
2019-12-05 04:00:00 -1.3 0 Calma 3 Oeste 0 -- -- 98
2019-12-05 03:00:00 -1.8 0 Calma 5 Oeste 0 -- -- 96
2019-12-05 02:00:00 -1.5 0 Calma 3 Oeste 0 -- -- 96
2019-12-05 01:00:00 -1.2 0 Calma 3 Oeste 0 -- -- 95
2019-12-05 00:00:00 -0.8 0 Calma 3 Oeste 0 -- -- 95
2019-12-04 23:00:00 -0.4 0 Calma 3 Oeste 0 -- -- 94
2019-12-04 22:00:00 0.3 0 Calma 5 Oeste 0 -- -- 94
2019-12-04 21:00:00 1 0 Calma 5 Oeste 0 -- -- 92
2019-12-04 20:00:00 1.9 0 Calma 4 Oeste 0 -- -- 91
2019-12-04 19:00:00 3.5 0 Calma 5 Oeste 0 -- -- 87
2019-12-04 18:00:00 5.7 2 Oeste 5 Oeste 0 -- -- 83
2019-12-04 17:00:00 8.3 0 Calma 4 Sudoeste 0 -- -- 73
2019-12-04 16:00:00 8.7 0 Calma 5 Oeste 0 -- -- 70
2019-12-04 15:00:00 6.5 0 Calma 5 Sudoeste 0 -- -- 79
2019-12-04 14:00:00 3.2 0 Calma 6 Oeste 0 -- -- 92
2019-12-04 13:00:00 0.7 0 Calma 4 Noroeste 0 -- -- 98
2019-12-04 12:00:00 -0.4 0 Calma 3 Norte 0 -- -- 99
2019-12-04 11:00:00 -1.2 0 Calma 4 Noroeste 0 -- -- 98
2019-12-04 10:00:00 -1.3 0 Calma 3 Norte 0 -- -- 98
2019-12-04 09:00:00 -1.2 0 Calma 3 Noroeste 0 -- -- 98
2019-12-04 08:00:00 -1.2 0 Calma 4 Noroeste 0 -- -- 98
2019-12-04 07:00:00 -1 0 Calma 5 Norte 0 -- -- 98
2019-12-04 06:00:00 -0.6 0 Calma 4 Noroeste 0 -- -- 98
2019-12-04 05:00:00 -0.5 0 Calma 4 Norte 0 -- -- 98
2019-12-04 04:00:00 -0.3 0 Calma 4 Norte 0 -- -- 98
2019-12-04 03:00:00 0.2 0 Calma 4 Noroeste 0 -- -- 98
2019-12-04 02:00:00 0.2 0 Calma 5 Noroeste 0 -- -- 98
2019-12-04 01:00:00 0.4 0 Calma 5 Noroeste 0 -- -- 98
2019-12-04 00:00:00 0.5 2 Norte 8 Noroeste 0 -- -- 97
2019-12-03 23:00:00 1 0 Calma 6 Norte 0 -- -- 98
2019-12-03 22:00:00 1.2 0 Calma 5 Norte 0 -- -- 98
2019-12-03 21:00:00 1.3 0 Calma 4 Norte 0 -- -- 97
2019-12-03 20:00:00 1.4 0 Calma 4 Norte 0 -- -- 97
2019-12-03 19:00:00 1.6 0 Calma 4 Norte 0 -- -- 97
2019-12-03 18:00:00 2 0 Calma 4 Noroeste 0 -- -- 94
2019-12-03 17:00:00 2.5 2 Noroeste 6 Noroeste 0 -- -- 94
2019-12-03 16:00:00 2.4 0 Calma 6 Oeste 0 -- -- 95
2019-12-03 15:00:00 2.1 0 Calma 6 Oeste 0 -- -- 96
2019-12-03 14:00:00 1.6 0 Calma 4 Noroeste 0 -- -- 97
2019-12-03 13:00:00 1.1 0 Calma 6 Noroeste 0 -- -- 97
2019-12-03 12:00:00 0.8 0 Calma 6 Noroeste 0 -- -- 98
2019-12-03 11:00:00 0.2 0 Calma 4 Este 0 -- -- 98
2019-12-03 10:00:00 -0.1 0 Calma 2 Este 0 -- -- 98
2019-12-03 09:00:00 -0.3 2 Este 5 Este 0 -- -- 98
2019-12-03 08:00:00 -0.4 0 Calma 2 Este 0 -- -- 97
2019-12-03 07:00:00 -0.5 0 Calma 3 Este 0 -- -- 96
2019-12-03 06:00:00 -0.6 0 Calma 3 Este 0 -- -- 96
2019-12-03 05:00:00 -1.4 0 Calma 3 Este 0 -- -- 93
2019-12-03 04:00:00 -0.9 0 Calma 2 Este 0 -- -- 91
2019-12-03 03:00:00 -0.2 0 Calma 3 Este 0 -- -- 90
2019-12-03 02:00:00 0.8 0 Calma 2 Este 0 -- -- 89
2019-12-03 01:00:00 2.1 0 Calma 5 Este 0 -- -- 88
2019-12-03 00:00:00 3.2 0 Calma 4 Este 0 -- -- 88
2019-12-02 23:00:00 4.8 0 Calma 12 Norte 0 -- -- 84
2019-12-02 22:00:00 6.7 3 Este 21 Norte 0 -- -- 77
2019-12-02 21:00:00 6.8 6 Norte 19 Nordeste 0 -- -- 78
2019-12-02 20:00:00 7.4 4 Nordeste 12 Nordeste 0 -- -- 78
2019-12-02 19:00:00 8.3 4 Nordeste 24 Norte 0 -- -- 75
2019-12-02 18:00:00 9.9 12 Norte 33 Norte 0 -- -- 68
2019-12-02 17:00:00 11.3 15 Norte 38 Nordeste 0 -- -- 62
2019-12-02 16:00:00 13.2 14 Norte 37 Norte 0 -- -- 59
2019-12-02 15:00:00 13.5 19 Norte 37 Norte 0 -- -- 58
2019-12-02 14:00:00 13.7 13 Norte 37 Norte 0 -- -- 62
2019-12-02 13:00:00 12.9 19 Norte 34 Nordeste 0 -- -- 63
2019-12-02 12:00:00 10.9 4 Sudoeste 23 Este 0 -- -- 78
2019-12-02 11:00:00 6.8 0 Calma -- -- 0 -- -- 91
2019-12-02 10:00:00 2 0 Calma -- -- 0 -- -- 98
2019-12-02 09:00:00 1.2 0 Calma -- -- 0 -- -- 94
2019-12-02 08:00:00 1.8 0 Calma -- -- 0 -- -- 93
2019-12-02 07:00:00 2.8 0 Calma -- -- 0 -- -- 93
2019-12-02 06:00:00 3.8 0 Calma -- -- 0 -- -- 94
2019-12-02 05:00:00 4.6 0 Calma 7 Nordeste 0 -- -- 90
2019-12-02 04:00:00 5.6 0 Calma 10 Norte 0 -- -- 90
2019-12-02 03:00:00 6.9 3 Norte 12 Norte 0 -- -- 89
2019-12-02 02:00:00 7 4 Nordeste 14 Nordeste 0 -- -- 89
2019-12-02 01:00:00 6.9 5 Norte 18 Norte 0 -- -- 88
2019-12-02 00:00:00 7 8 Norte 19 Norte 0 -- -- 85
2019-12-01 23:00:00 7 2 Norte 22 Norte 0 -- -- 82
2019-12-01 22:00:00 7.8 7 Norte 33 Nordeste 0 -- -- 79
2019-12-01 21:00:00 8.6 16 Norte 33 Noroeste 0 -- -- 80
2019-12-01 20:00:00 9.6 4 Norte 28 Nordeste 0 -- -- 78
2019-12-01 19:00:00 10.2 8 Norte 26 Norte 0 -- -- 79
2019-12-01 18:00:00 11 8 Norte 27 Nordeste 0 -- -- 72
2019-12-01 17:00:00 12.5 10 Norte 26 Norte 0 -- -- 67
2019-12-01 16:00:00 14 11 Norte 28 Norte 0 -- -- 62
2019-12-01 15:00:00 13.4 15 Norte 41 Norte 0 -- -- 66
2019-12-01 14:00:00 12.3 13 Norte 30 Nordeste 0 -- -- 70
2019-12-01 13:00:00 12.2 6 Norte 30 Nordeste 0 -- -- 82
2019-12-01 12:00:00 10.8 9 Norte 22 Norte 0 -- -- 84
2019-12-01 11:00:00 8.9 5 Norte 13 Norte 0.2 -- -- 95
2019-12-01 10:00:00 8.3 0 Calma 5 Nordeste 0 -- -- 97
2019-12-01 09:00:00 7.4 0 Calma 7 Norte 0 -- -- 96
2019-12-01 08:00:00 7.7 0 Calma 6 Nordeste 0 -- -- 95
2019-12-01 07:00:00 8.1 0 Calma 5 Nordeste 1 -- -- 96
2019-12-01 06:00:00 8.1 0 Calma 3 Nordeste 0 -- -- 96
2019-12-01 05:00:00 8 0 Calma 7 Norte 0 -- -- 95
2019-12-01 04:00:00 8.1 4 Este 21 Sur 0 -- -- 94
2019-12-01 03:00:00 8.6 7 Sur 21 Sudeste 2.4 -- -- 89
2019-12-01 02:00:00 8.9 0 Calma 15 Sur 2.4 -- -- 92
2019-12-01 01:00:00 8.7 0 Calma 3 Oeste 0 -- -- 95
2019-12-01 00:00:00 8.8 0 Calma 5 Oeste 0.2 -- -- 95
2019-11-30 23:00:00 9.1 0 Calma 14 Sur 0.4 -- -- 92
2019-11-30 22:00:00 9.4 0 Calma 4 Sudoeste 1.8 -- -- 93
2019-11-30 21:00:00 9.5 0 Calma 10 Sudoeste 0 -- -- 91
2019-11-30 20:00:00 10.2 7 Sudoeste 16 Sudoeste 0.6 -- -- 87
2019-11-30 19:00:00 10.6 2 Sur 13 Sudoeste 0 -- -- 83
2019-11-30 18:00:00 11.4 0 Calma 18 Sudoeste 0 -- -- 83
2019-11-30 17:00:00 12.5 9 Sudoeste 24 Sudoeste 0 -- -- 70
2019-11-30 16:00:00 13.9 10 Sudoeste 29 Sudoeste 0 -- -- 64
2019-11-30 15:00:00 14.1 11 Sudoeste 36 Sudoeste 0 -- -- 64
2019-11-30 14:00:00 14.4 4 Oeste 20 Sudoeste 0 -- -- 69
2019-11-30 13:00:00 13.8 8 Sudoeste 19 Sudoeste 0 -- -- 74
2019-11-30 12:00:00 12.7 4 Sudoeste 9 Sudoeste 0 -- -- 79
2019-11-30 11:00:00 11.9 2 Oeste 13 Noroeste 0 -- -- 86
2019-11-30 10:00:00 12.4 5 Sudoeste 22 Sur 0 -- -- 85
2019-11-30 09:00:00 12.2 5 Sur 14 Sur 0 -- -- 89
2019-11-30 08:00:00 13.2 3 Sudoeste 26 Sudoeste 1.2 -- -- 94
2019-11-30 07:00:00 14.1 3 Sudoeste 18 Sur 0.8 -- -- 93
2019-11-30 06:00:00 14.1 6 Sur 17 Sudoeste 0.6 -- -- 95
2019-11-30 05:00:00 14.4 10 Sudoeste 23 Sudoeste 1.2 -- -- 94
2019-11-30 04:00:00 13.9 6 Sur 14 Sur 0.4 -- -- 97
2019-11-30 03:00:00 12.2 0 Calma 5 Sudeste 2 -- -- 99
2019-11-30 02:00:00 12 0 Calma 5 Norte 2 -- -- 98
2019-11-30 01:00:00 12.1 0 Calma 0 Calma 1.2 -- -- 98
2019-11-30 00:00:00 12.1 0 Calma 0 Calma 1 -- -- 98
2019-11-29 23:00:00 12.1 0 Calma -- -- 0 -- -- 97
2019-11-29 22:00:00 12.1 0 Calma 4 Noroeste 0 -- -- 97
2019-11-29 21:00:00 12.2 0 Calma 0 Calma 0 -- -- 96
2019-11-29 20:00:00 12.3 0 Calma 0 Calma 0 -- -- 94
2019-11-29 19:00:00 12.9 0 Calma 0 Calma 0 -- -- 91
2019-11-29 18:00:00 14.3 0 Calma 0 Calma 0 -- -- 87
2019-11-29 17:00:00 16 0 Calma 4 Norte 0 -- -- 80
2019-11-29 16:00:00 16.2 0 Calma 6 Noroeste 0 -- -- 80
2019-11-29 15:00:00 14.3 0 Calma 4 Oeste 0 -- -- 87
2019-11-29 14:00:00 13.9 2 Noroeste 5 Noroeste 0 -- -- 88
2019-11-29 13:00:00 12.5 0 Calma 5 Noroeste 0 -- -- 92
2019-11-29 12:00:00 11.9 0 Calma 4 Norte 0 -- -- 95
2019-11-29 11:00:00 10.9 2 Noroeste 5 Noroeste 0 -- -- 99
2019-11-29 10:00:00 10.2 0 Calma 3 Norte 0 -- -- 99
2019-11-29 09:00:00 9.6 0 Calma 4 Norte 0 -- -- 99
2019-11-29 08:00:00 9.7 0 Calma 6 Nordeste 0 -- -- 99
2019-11-29 07:00:00 9.6 0 Calma 4 Sudeste 0 -- -- 99
2019-11-29 06:00:00 9.4 0 Calma 0 Calma 0 -- -- 99
2019-11-29 05:00:00 9.5 0 Calma 4 Sudeste 0 -- -- 98
2019-11-29 04:00:00 9.8 0 Calma 2 Sudeste 0 -- -- 98
2019-11-29 03:00:00 10 0 Calma -- -- 0 -- -- 96
2019-11-29 02:00:00 10.8 0 Calma 0 Calma 0 -- -- 97
2019-11-29 01:00:00 10.9 0 Calma 3 Sudeste 0 -- -- 97
2019-11-29 00:00:00 11.1 0 Calma 4 Sudeste 0 -- -- 97
2019-11-28 23:00:00 11.6 0 Calma 4 Oeste 0 -- -- 94
2019-11-28 22:00:00 12.7 0 Calma 5 Sudoeste 0 -- -- 95
2019-11-28 21:00:00 13.3 0 Calma 10 Sudoeste 0 -- -- 95
2019-11-28 20:00:00 14.3 6 Sudoeste 20 Sudoeste 0 -- -- 93
2019-11-28 19:00:00 14.1 2 Sudoeste 30 Sudoeste 0.2 -- -- 94
2019-11-28 18:00:00 13.8 12 Sudoeste 28 Sudoeste 0.2 -- -- 93
2019-11-28 17:00:00 12.7 0 Calma 6 Este 2.4 -- -- 97
2019-11-28 16:00:00 13 2 Nordeste 8 Norte 2 -- -- 95
2019-11-28 15:00:00 13.2 0 Calma 14 Sur 0.8 -- -- 94
2019-11-28 14:00:00 13.6 3 Sudoeste 12 Sudoeste 1 -- -- 91
2019-11-28 13:00:00 14.3 6 Sudoeste 21 Sudoeste 0 -- -- 87
2019-11-28 12:00:00 13.7 2 Sudoeste 22 Sudoeste 0 -- -- 91
2019-11-28 11:00:00 13.4 5 Sudoeste 18 Sudoeste 0.2 -- -- 95
2019-11-28 10:00:00 13 8 Sudoeste 14 Sudoeste -- -- -- 98
2019-11-28 09:00:00 12.3 0 Calma 5 Sur -- -- -- 98
2019-11-28 08:00:00 12.3 0 Calma 8 Sudoeste -- -- -- 97
2019-11-28 07:00:00 12.6 0 Calma 10 Sur -- -- -- 95
2019-11-28 06:00:00 13.4 5 Sur 21 Sur -- -- -- 94
2019-11-28 05:00:00 11.7 0 Calma 7 Sudeste -- -- -- 98
2019-11-28 04:00:00 11.6 0 Calma 6 Nordeste -- -- -- 97
2019-11-28 03:00:00 11.7 0 Calma 5 Sur -- -- -- 96
2019-11-28 02:00:00 11.9 0 Calma 7 Sudoeste -- -- -- 94
2019-11-28 01:00:00 12.2 4 Sudoeste 18 Sudoeste -- -- -- 92
2019-11-28 00:00:00 11.9 7 Sudoeste 17 Sudoeste -- -- -- 93
2019-11-27 23:00:00 11.5 5 Sudoeste 14 Sur -- -- -- 95
2019-11-27 22:00:00 11.2 5 Sur 20 Sudoeste -- -- -- 94
2019-11-27 21:00:00 11.3 7 Sudoeste 22 Sudoeste -- -- -- 91
2019-11-27 20:00:00 11.3 7 Sudoeste 18 Sudoeste -- -- -- 91
2019-11-27 19:00:00 11.3 6 Sudoeste -- -- -- -- -- 93
2019-11-27 18:00:00 -- -- -- -- -- -- -- -- --
2019-11-27 17:00:00 -- -- -- -- -- -- -- -- --
2019-11-27 16:00:00 -- -- -- -- -- -- -- -- --
2019-11-27 15:00:00 12.1 7 Sudoeste 31 Sudoeste -- -- -- 92
2019-11-27 14:00:00 12.4 10 Sudoeste 19 Sudoeste -- -- -- 89
2019-11-27 06:00:00 10.8 4 Sudoeste 15 Sudoeste -- -- -- 95
2019-11-27 05:00:00 10.8 3 Sur 9 Sudoeste -- -- -- 94
2019-11-27 04:00:00 10.7 3 Sudoeste 22 Oeste -- -- -- 94
2019-11-27 03:00:00 10.7 9 Sudoeste 22 Oeste -- -- -- 92
2019-11-27 02:00:00 10.4 9 Sudoeste 36 Oeste -- -- -- 92
2019-11-27 01:00:00 10.9 13 Sudoeste 30 Sudoeste -- -- -- 87
2019-11-27 00:00:00 10.7 10 Sudoeste 28 Sudoeste -- -- -- 89
2019-11-26 23:00:00 10.5 7 Sudoeste 15 Sudoeste -- -- -- 89
2019-11-26 22:00:00 9.9 0 Calma 7 Sur -- -- -- 91
2019-11-26 21:00:00 10.4 0 Calma 34 Sudoeste -- -- -- 90
2019-11-26 20:00:00 11.7 7 Oeste 38 Sudoeste -- -- -- 87
2019-11-26 19:00:00 11.6 9 Sudoeste 35 Sudoeste -- -- -- 91
2019-11-26 18:00:00 12.8 19 Sudoeste 50 Sudoeste -- -- -- 84
2019-11-26 17:00:00 14 23 Sudoeste 48 Sudoeste -- -- -- 83
2019-11-26 16:00:00 14.2 19 Sudoeste 47 Sudoeste -- -- -- 86
2019-11-26 15:00:00 17.3 23 Sudoeste 49 Sudoeste -- -- -- 59
2019-11-26 14:00:00 17.6 14 Sur 46 Sudoeste -- -- -- 59
2019-11-26 13:00:00 17.4 15 Sudoeste 40 Sudoeste -- -- -- 59
2019-11-26 12:00:00 16.3 10 Sur 29 Sur -- -- -- 66
2019-11-26 11:00:00 16.9 7 Sur 14 Sudoeste -- -- -- 71
2019-11-26 10:00:00 14 6 Sudoeste 30 Sudoeste -- -- -- 85
2019-11-26 09:00:00 13.6 6 Sudoeste 27 Sudoeste -- -- -- 87
2019-11-26 08:00:00 14 10 Sudoeste 24 Oeste -- -- -- 91
2019-11-26 07:00:00 13.5 0 Calma 5 Sur -- -- -- 95
2019-11-26 06:00:00 14.1 0 Calma 19 Sur -- -- -- 92
2019-11-26 05:00:00 14.6 7 Sur 21 Sur -- -- -- 89
2019-11-26 04:00:00 15.6 8 Sur 27 Sudoeste -- -- -- 83
2019-11-26 03:00:00 13.8 6 Sudoeste 17 Sur -- -- -- 89
2019-11-26 02:00:00 11.7 3 Norte 6 Noroeste -- -- -- 94
2019-11-26 01:00:00 11.4 2 Norte 7 Noroeste -- -- -- 94
2019-11-26 00:00:00 11.2 0 Calma 5 Sur -- -- -- 95
2019-11-25 23:00:00 10.9 0 Calma 7 Sur -- -- -- 95
2019-11-25 22:00:00 10.7 2 Sudoeste 7 Sudoeste -- -- -- 93
2019-11-25 21:00:00 11.6 0 Calma 4 Oeste -- -- -- 92
2019-11-25 20:00:00 11.9 2 Oeste 4 Oeste -- -- -- 91
2019-11-25 19:00:00 12.8 0 Calma 6 Sudoeste -- -- -- 87
2019-11-25 18:00:00 14.1 3 Sudoeste 21 Sudoeste -- -- -- 82
2019-11-25 17:00:00 14.6 10 Sudoeste 22 Oeste -- -- -- 79
2019-11-25 16:00:00 15.9 9 Sudoeste 27 Sudoeste -- -- -- 73
2019-11-25 15:00:00 15.2 6 Sudoeste 19 Sudoeste -- -- -- 78
2019-11-25 14:00:00 14.6 6 Sudoeste 15 Sudoeste -- -- -- 80
2019-11-25 13:00:00 13.6 8 Sudoeste 21 Sudoeste -- -- -- 86
2019-11-25 12:00:00 13.4 3 Sur 12 Sudoeste -- -- -- 87
2019-11-25 11:00:00 12.9 8 Sudoeste 17 Sudoeste -- -- -- 91
2019-11-25 10:00:00 -- -- -- -- -- -- -- -- --
2019-11-25 09:00:00 -- -- -- -- -- -- -- -- --
2019-11-25 08:00:00 -- -- -- -- -- -- -- -- --
2019-11-25 07:00:00 -- -- -- -- -- -- -- -- --
2019-11-25 06:00:00 -- -- -- -- -- -- -- -- --
2019-11-25 05:00:00 -- -- -- -- -- -- -- -- --
2019-11-25 04:00:00 -- -- -- -- -- -- -- -- --
2019-11-25 03:00:00 -- -- -- -- -- -- -- -- --
2019-11-25 02:00:00 -- -- -- -- -- -- -- -- --
2019-11-25 01:00:00 -- -- -- -- -- -- -- -- --
2019-11-25 00:00:00 -- -- -- -- -- -- -- -- --
2019-11-24 23:00:00 -- -- -- -- -- -- -- -- --
2019-11-24 22:00:00 -- -- -- -- -- -- -- -- --
2019-11-24 21:00:00 -- -- -- -- -- -- -- -- --
2019-11-24 20:00:00 -- -- -- -- -- -- -- -- --
2019-11-24 19:00:00 -- -- -- -- -- -- -- -- --
2019-11-24 18:00:00 -- -- -- -- -- -- -- -- --
2019-11-24 17:00:00 -- -- -- -- -- -- -- -- --
2019-11-24 16:00:00 -- -- -- -- -- -- -- -- --
2019-11-24 15:00:00 -- -- -- -- -- -- -- -- --
2019-11-24 14:00:00 -- -- -- -- -- -- -- -- --
2019-11-24 13:00:00 -- -- -- -- -- -- -- -- --
2019-11-24 12:00:00 -- -- -- -- -- -- -- -- --
2019-11-24 11:00:00 -- -- -- -- -- -- -- -- --
2019-11-24 10:00:00 -- -- -- -- -- -- -- -- --
2019-11-24 09:00:00 -- -- -- -- -- -- -- -- --
2019-11-24 08:00:00 -- -- -- -- -- -- -- -- --
2019-11-24 07:00:00 -- -- -- -- -- -- -- -- --
2019-11-24 06:00:00 -- -- -- -- -- -- -- -- --
2019-11-24 05:00:00 -- -- -- -- -- -- -- -- --
2019-11-24 04:00:00 -- -- -- -- -- -- -- -- --
2019-11-24 03:00:00 -- -- -- -- -- -- -- -- --
2019-11-24 02:00:00 -- -- -- -- -- -- -- -- --
2019-11-24 01:00:00 -- -- -- -- -- -- -- -- --
2019-11-24 00:00:00 -- -- -- -- -- -- -- -- --
2019-11-23 23:00:00 -- -- -- -- -- -- -- -- --
2019-11-23 22:00:00 -- -- -- -- -- -- -- -- --
2019-11-23 21:00:00 -- -- -- -- -- -- -- -- --
2019-11-23 20:00:00 -- -- -- -- -- -- -- -- --
2019-11-23 19:00:00 -- -- -- -- -- -- -- -- --
2019-11-23 18:00:00 -- -- -- -- -- -- -- -- --
2019-11-23 17:00:00 -- -- -- -- -- -- -- -- --
2019-11-23 16:00:00 -- -- -- -- -- -- -- -- --
2019-11-23 15:00:00 -- -- -- -- -- -- -- -- --
2019-11-23 14:00:00 -- -- -- -- -- -- -- -- --
2019-11-23 13:00:00 -- -- -- -- -- -- -- -- --
2019-11-23 12:00:00 -- -- -- -- -- -- -- -- --
2019-11-23 11:00:00 -- -- -- -- -- -- -- -- --
2019-11-23 10:00:00 -- -- -- -- -- -- -- -- --
2019-11-23 09:00:00 -- -- -- -- -- -- -- -- --
2019-11-23 08:00:00 -- -- -- -- -- -- -- -- --
2019-11-23 07:00:00 -- -- -- -- -- -- -- -- --
2019-11-23 06:00:00 -- -- -- -- -- -- -- -- --
2019-11-23 05:00:00 -- -- -- -- -- -- -- -- --
2019-11-23 04:00:00 -- -- -- -- -- -- -- -- --
2019-11-23 03:00:00 -- -- -- -- -- -- -- -- --
2019-11-23 02:00:00 -- -- -- -- -- -- -- -- --
2019-11-23 01:00:00 -- -- -- -- -- -- -- -- --
2019-11-23 00:00:00 -- -- -- -- -- -- -- -- --
2019-11-22 23:00:00 -- -- -- -- -- -- -- -- --
2019-11-22 22:00:00 -- -- -- -- -- -- -- -- --
2019-11-22 21:00:00 -- -- -- -- -- -- -- -- --
2019-11-22 20:00:00 -- -- -- -- -- -- -- -- --
2019-11-22 19:00:00 -- -- -- -- -- -- -- -- --
2019-11-22 18:00:00 -- -- -- -- -- -- -- -- --
2019-11-22 17:00:00 -- -- -- -- -- -- -- -- --
2019-11-22 16:00:00 -- -- -- -- -- -- -- -- --
2019-11-22 15:00:00 -- -- -- -- -- -- -- -- --
2019-11-22 14:00:00 -- -- -- -- -- -- -- -- --
2019-11-22 13:00:00 -- -- -- -- -- -- -- -- --
2019-11-22 12:00:00 -- -- -- -- -- -- -- -- --
2019-11-22 11:00:00 -- -- -- -- -- -- -- -- --
2019-11-22 10:00:00 -- -- -- -- -- -- -- -- --
2019-11-22 09:00:00 -- -- -- -- -- -- -- -- --
2019-11-22 08:00:00 -- -- -- -- -- -- -- -- --
2019-11-22 07:00:00 -- -- -- -- -- -- -- -- --
2019-11-22 06:00:00 -- -- -- -- -- -- -- -- --
2019-11-22 05:00:00 -- -- -- -- -- -- -- -- --
2019-11-22 04:00:00 -- -- -- -- -- -- -- -- --
2019-11-22 03:00:00 -- -- -- -- -- -- -- -- --
2019-11-22 02:00:00 -- -- -- -- -- -- -- -- --
2019-11-22 01:00:00 -- -- -- -- -- -- -- -- --
2019-11-22 00:00:00 -- -- -- -- -- -- -- -- --
2019-11-21 23:00:00 -- -- -- -- -- -- -- -- --
2019-11-21 22:00:00 -- -- -- -- -- -- -- -- --
2019-11-21 21:00:00 -- -- -- -- -- -- -- -- --
2019-11-21 20:00:00 -- -- -- -- -- -- -- -- --
2019-11-21 19:00:00 -- -- -- -- -- -- -- -- --
2019-11-21 18:00:00 -- -- -- -- -- -- -- -- --
2019-11-21 17:00:00 -- -- -- -- -- -- -- -- --
2019-11-21 16:00:00 -- -- -- -- -- -- -- -- --
2019-11-21 15:00:00 -- -- -- -- -- -- -- -- --
2019-11-21 14:00:00 -- -- -- -- -- -- -- -- --
2019-11-21 13:00:00 -- -- -- -- -- -- -- -- --
2019-11-21 12:00:00 -- -- -- -- -- -- -- -- --
2019-11-21 11:00:00 -- -- -- -- -- -- -- -- --
2019-11-21 10:00:00 -- -- -- -- -- -- -- -- --
2019-11-21 09:00:00 -- -- -- -- -- -- -- -- --
2019-11-21 08:00:00 -- -- -- -- -- -- -- -- --
2019-11-21 07:00:00 -- -- -- -- -- -- -- -- --
2019-11-21 06:00:00 -- -- -- -- -- -- -- -- --
2019-11-21 05:00:00 -- -- -- -- -- -- -- -- --
2019-11-21 04:00:00 -- -- -- -- -- -- -- -- --
2019-11-21 03:00:00 -- -- -- -- -- -- -- -- --
2019-11-21 02:00:00 -- -- -- -- -- -- -- -- --
2019-11-21 01:00:00 -- -- -- -- -- -- -- -- --
2019-11-21 00:00:00 -- -- -- -- -- -- -- -- --
2019-11-20 23:00:00 -- -- -- -- -- -- -- -- --
2019-11-20 22:00:00 -- -- -- -- -- -- -- -- --
2019-11-20 21:00:00 -- -- -- -- -- -- -- -- --
2019-11-20 20:00:00 -- -- -- -- -- -- -- -- --
2019-11-20 19:00:00 -- -- -- -- -- -- -- -- --
2019-11-20 18:00:00 -- -- -- -- -- -- -- -- --
2019-11-20 17:00:00 -- -- -- -- -- -- -- -- --
2019-11-20 16:00:00 -- -- -- -- -- -- -- -- --
2019-11-20 15:00:00 -- -- -- -- -- -- -- -- --
2019-11-20 14:00:00 -- -- -- -- -- -- -- -- --
2019-11-20 13:00:00 -- -- -- -- -- -- -- -- --
2019-11-20 12:00:00 -- -- -- -- -- -- -- -- --
2019-11-20 11:00:00 -- -- -- -- -- -- -- -- --
2019-11-20 10:00:00 -- -- -- -- -- -- -- -- --
2019-11-20 09:00:00 -- -- -- -- -- -- -- -- --
2019-11-20 08:00:00 -- -- -- -- -- -- -- -- --
2019-11-20 07:00:00 -- -- -- -- -- -- -- -- --
2019-11-20 06:00:00 -- -- -- -- -- -- -- -- --
2019-11-20 05:00:00 -- -- -- -- -- -- -- -- --
2019-11-20 04:00:00 -- -- -- -- -- -- -- -- --
2019-11-20 03:00:00 -- -- -- -- -- -- -- -- --
2019-11-20 02:00:00 -- -- -- -- -- -- -- -- --
2019-11-20 01:00:00 -- -- -- -- -- -- -- -- --
2019-11-20 00:00:00 -- -- -- -- -- -- -- -- --
2019-11-19 23:00:00 -- -- -- -- -- -- -- -- --
2019-11-19 22:00:00 -- -- -- -- -- -- -- -- --
2019-11-19 21:00:00 -- -- -- -- -- -- -- -- --
2019-11-19 20:00:00 -- -- -- -- -- -- -- -- --
2019-11-19 19:00:00 -- -- -- -- -- -- -- -- --
2019-11-19 18:00:00 -- -- -- -- -- -- -- -- --
2019-11-19 17:00:00 -- -- -- -- -- -- -- -- --
2019-11-19 16:00:00 -- -- -- -- -- -- -- -- --
2019-11-19 15:00:00 -- -- -- -- -- -- -- -- --
2019-11-19 14:00:00 -- -- -- -- -- -- -- -- --
2019-11-19 13:00:00 -- -- -- -- -- -- -- -- --
2019-11-19 12:00:00 -- -- -- -- -- -- -- -- --
2019-11-19 11:00:00 -- -- -- -- -- -- -- -- --
2019-11-19 10:00:00 -- -- -- -- -- -- -- -- --
2019-11-19 09:00:00 -- -- -- -- -- -- -- -- --
2019-11-19 08:00:00 -- -- -- -- -- -- -- -- --
2019-11-19 07:00:00 -- -- -- -- -- -- -- -- --
2019-11-19 06:00:00 -- -- -- -- -- -- -- -- --
2019-11-19 05:00:00 -- -- -- -- -- -- -- -- --
2019-11-19 04:00:00 -- -- -- -- -- -- -- -- --
2019-11-19 03:00:00 -- -- -- -- -- -- -- -- --
2019-11-19 02:00:00 -- -- -- -- -- -- -- -- --
2019-11-19 01:00:00 -- -- -- -- -- -- -- -- --
2019-11-19 00:00:00 -- -- -- -- -- -- -- -- --
2019-11-18 23:00:00 -- -- -- -- -- -- -- -- --
2019-11-18 22:00:00 -- -- -- -- -- -- -- -- --
2019-11-18 21:00:00 -- -- -- -- -- -- -- -- --
2019-11-18 20:00:00 -- -- -- -- -- -- -- -- --
2019-11-18 19:00:00 -- -- -- -- -- -- -- -- --
2019-11-18 18:00:00 -- -- -- -- -- -- -- -- --
2019-11-18 17:00:00 -- -- -- -- -- -- -- -- --
2019-11-18 16:00:00 -- -- -- -- -- -- -- -- --
2019-11-18 15:00:00 -- -- -- -- -- -- -- -- --
2019-11-18 14:00:00 -- -- -- -- -- -- -- -- --
2019-11-18 13:00:00 -- -- -- -- -- -- -- -- --
2019-11-18 12:00:00 -- -- -- -- -- -- -- -- --
2019-11-18 11:00:00 -- -- -- -- -- -- -- -- --
2019-11-18 10:00:00 -- -- -- -- -- -- -- -- --
2019-11-18 09:00:00 -- -- -- -- -- -- -- -- --
2019-11-18 08:00:00 -- -- -- -- -- -- -- -- --
2019-11-18 07:00:00 -- -- -- -- -- -- -- -- --
2019-11-18 06:00:00 -- -- -- -- -- -- -- -- --
2019-11-18 05:00:00 -- -- -- -- -- -- -- -- --
2019-11-18 04:00:00 -- -- -- -- -- -- -- -- --
2019-11-18 03:00:00 -- -- -- -- -- -- -- -- --
2019-11-18 02:00:00 -- -- -- -- -- -- -- -- --
2019-11-18 01:00:00 -- -- -- -- -- -- -- -- --
2019-11-18 00:00:00 -- -- -- -- -- -- -- -- --
2019-11-17 23:00:00 -- -- -- -- -- -- -- -- --
2019-11-17 22:00:00 -- -- -- -- -- -- -- -- --
2019-11-17 21:00:00 -- -- -- -- -- -- -- -- --
2019-11-17 20:00:00 -- -- -- -- -- -- -- -- --
2019-11-17 19:00:00 -- -- -- -- -- -- -- -- --
2019-11-17 18:00:00 -- -- -- -- -- -- -- -- --
2019-11-17 17:00:00 -- -- -- -- -- -- -- -- --
2019-11-17 16:00:00 -- -- -- -- -- -- -- -- --
2019-11-17 15:00:00 -- -- -- -- -- -- -- -- --
2019-11-17 14:00:00 -- -- -- -- -- -- -- -- --
2019-11-17 13:00:00 -- -- -- -- -- -- -- -- --
2019-11-17 12:00:00 -- -- -- -- -- -- -- -- --
2019-11-17 11:00:00 -- -- -- -- -- -- -- -- --
2019-11-17 10:00:00 -- -- -- -- -- -- -- -- --
2019-11-17 09:00:00 -- -- -- -- -- -- -- -- --
2019-11-17 08:00:00 -- -- -- -- -- -- -- -- --
2019-11-17 07:00:00 -- -- -- -- -- -- -- -- --
2019-11-17 06:00:00 -- -- -- -- -- -- -- -- --
2019-11-17 05:00:00 -- -- -- -- -- -- -- -- --
2019-11-17 04:00:00 -- -- -- -- -- -- -- -- --
2019-11-17 03:00:00 -- -- -- -- -- -- -- -- --
2019-11-17 02:00:00 -- -- -- -- -- -- -- -- --
2019-11-17 01:00:00 -- -- -- -- -- -- -- -- --
2019-11-17 00:00:00 -- -- -- -- -- -- -- -- --
2019-11-16 23:00:00 -- -- -- -- -- -- -- -- --
2019-11-16 22:00:00 -- -- -- -- -- -- -- -- --
2019-11-16 21:00:00 -- -- -- -- -- -- -- -- --
2019-11-16 20:00:00 -- -- -- -- -- -- -- -- --
2019-11-16 19:00:00 -- -- -- -- -- -- -- -- --
2019-11-16 18:00:00 -- -- -- -- -- -- -- -- --
2019-11-16 17:00:00 -- -- -- -- -- -- -- -- --
2019-11-16 16:00:00 -- -- -- -- -- -- -- -- --
2019-11-16 15:00:00 -- -- -- -- -- -- -- -- --
2019-11-16 14:00:00 -- -- -- -- -- -- -- -- --
2019-11-16 13:00:00 -- -- -- -- -- -- -- -- --
2019-11-16 12:00:00 -- -- -- -- -- -- -- -- --
2019-11-16 11:00:00 -- -- -- -- -- -- -- -- --
2019-11-16 10:00:00 -- -- -- -- -- -- -- -- --
2019-11-16 09:00:00 -- -- -- -- -- -- -- -- --
2019-11-16 08:00:00 -- -- -- -- -- -- -- -- --
2019-11-16 07:00:00 -- -- -- -- -- -- -- -- --
2019-11-16 06:00:00 -- -- -- -- -- -- -- -- --
2019-11-16 05:00:00 -- -- -- -- -- -- -- -- --
2019-11-16 04:00:00 -- -- -- -- -- -- -- -- --
2019-11-16 03:00:00 -- -- -- -- -- -- -- -- --
2019-11-16 02:00:00 -- -- -- -- -- -- -- -- --
2019-11-16 01:00:00 -- -- -- -- -- -- -- -- --
2019-11-16 00:00:00 -- -- -- -- -- -- -- -- --
2019-11-15 23:00:00 -- -- -- -- -- -- -- -- --
2019-11-15 22:00:00 -- -- -- -- -- -- -- -- --
2019-11-15 21:00:00 -- -- -- -- -- -- -- -- --
2019-11-15 20:00:00 -- -- -- -- -- -- -- -- --
2019-11-15 19:00:00 -- -- -- -- -- -- -- -- --
2019-11-15 18:00:00 -- -- -- -- -- -- -- -- --
2019-11-15 17:00:00 -- -- -- -- -- -- -- -- --
2019-11-15 16:00:00 -- -- -- -- -- -- -- -- --
2019-11-15 15:00:00 -- -- -- -- -- -- -- -- --
2019-11-15 14:00:00 -- -- -- -- -- -- -- -- --
2019-11-15 13:00:00 -- -- -- -- -- -- -- -- --
2019-11-15 12:00:00 -- -- -- -- -- -- -- -- --
2019-11-15 11:00:00 -- -- -- -- -- -- -- -- --
2019-11-15 10:00:00 -- -- -- -- -- -- -- -- --
2019-11-15 09:00:00 -- -- -- -- -- -- -- -- --
2019-11-15 08:00:00 -- -- -- -- -- -- -- -- --
2019-11-15 07:00:00 -- -- -- -- -- -- -- -- --
2019-11-15 06:00:00 -- -- -- -- -- -- -- -- --
2019-11-15 05:00:00 -- -- -- -- -- -- -- -- --
2019-11-15 04:00:00 -- -- -- -- -- -- -- -- --
2019-11-15 03:00:00 -- -- -- -- -- -- -- -- --
2019-11-15 02:00:00 -- -- -- -- -- -- -- -- --
2019-11-15 01:00:00 -- -- -- -- -- -- -- -- --
2019-11-15 00:00:00 -- -- -- -- -- -- -- -- --
2019-11-14 23:00:00 -- -- -- -- -- -- -- -- --
2019-11-14 22:00:00 -- -- -- -- -- -- -- -- --
2019-11-14 21:00:00 -- -- -- -- -- -- -- -- --
2019-11-14 20:00:00 -- -- -- -- -- -- -- -- --
2019-11-14 19:00:00 -- -- -- -- -- -- -- -- --
2019-11-14 18:00:00 -- -- -- -- -- -- -- -- --
2019-11-14 17:00:00 -- -- -- -- -- -- -- -- --
2019-11-14 16:00:00 -- -- -- -- -- -- -- -- --
2019-11-14 15:00:00 -- -- -- -- -- -- -- -- --
2019-11-14 14:00:00 -- -- -- -- -- -- -- -- --
2019-11-14 13:00:00 -- -- -- -- -- -- -- -- --
2019-11-14 12:00:00 -- -- -- -- -- -- -- -- --
2019-11-14 11:00:00 -- -- -- -- -- -- -- -- --
2019-11-14 10:00:00 -- -- -- -- -- -- -- -- --
2019-11-14 09:00:00 -- -- -- -- -- -- -- -- --
2019-11-14 08:00:00 -- -- -- -- -- -- -- -- --
2019-11-14 07:00:00 -- -- -- -- -- -- -- -- --
2019-11-14 06:00:00 -- -- -- -- -- -- -- -- --
2019-11-14 05:00:00 -- -- -- -- -- -- -- -- --
2019-11-14 04:00:00 -- -- -- -- -- -- -- -- --
2019-11-14 03:00:00 -- -- -- -- -- -- -- -- --
2019-11-14 02:00:00 -- -- -- -- -- -- -- -- --
2019-11-14 01:00:00 -- -- -- -- -- -- -- -- --
2019-11-14 00:00:00 -- -- -- -- -- -- -- -- --
2019-11-13 23:00:00 -- -- -- -- -- -- -- -- --
2019-11-13 22:00:00 -- -- -- -- -- -- -- -- --
2019-11-13 21:00:00 -- -- -- -- -- -- -- -- --
2019-11-13 20:00:00 -- -- -- -- -- -- -- -- --
2019-11-13 19:00:00 -- -- -- -- -- -- -- -- --
2019-11-13 18:00:00 -- -- -- -- -- -- -- -- --
2019-11-13 17:00:00 -- -- -- -- -- -- -- -- --
2019-11-13 16:00:00 -- -- -- -- -- -- -- -- --
2019-11-13 15:00:00 -- -- -- -- -- -- -- -- --
2019-11-13 14:00:00 -- -- -- -- -- -- -- -- --
2019-11-13 13:00:00 -- -- -- -- -- -- -- -- --
2019-11-13 12:00:00 -- -- -- -- -- -- -- -- --
2019-11-13 11:00:00 -- -- -- -- -- -- -- -- --
2019-11-13 10:00:00 10.3 3 Noroeste 6 Este -- -- -- 99
2019-11-13 09:00:00 8.7 0 Calma 5 Sudeste -- -- -- 96
2019-11-13 08:00:00 9.6 0 Calma 4 Noroeste -- -- -- 96
2019-11-13 07:00:00 10.9 0 Calma 7 Norte -- -- -- 97
2019-11-13 06:00:00 11.4 3 Norte 10 Noroeste -- -- -- 95
2019-11-13 05:00:00 12.1 5 Noroeste 10 Noroeste -- -- -- 95
2019-11-13 04:00:00 12.6 2 Nordeste 22 Norte -- -- -- 96
2019-11-13 03:00:00 13.6 0 Calma 13 Sudoeste -- -- -- 98
2019-11-13 02:00:00 13.7 3 Sudoeste 15 Sudeste -- -- -- 98
2019-11-13 01:00:00 12.8 4 Sudeste 10 Sudeste -- -- -- 99
2019-11-13 00:00:00 12.7 0 Calma 5 Sudoeste -- -- -- 99
2019-11-12 23:00:00 12.7 0 Calma 7 Sur -- -- -- 98
2019-11-12 22:00:00 12.8 3 Sudoeste 12 Sudoeste -- -- -- 98
2019-11-12 21:00:00 12.1 0 Calma 8 Sudoeste -- -- -- 98
2019-11-12 20:00:00 12 0 Calma 7 Sudoeste -- -- -- 98
2019-11-12 19:00:00 12 0 Calma 15 Sudoeste -- -- -- 96
2019-11-12 18:00:00 12 6 Sudoeste 18 Sudoeste -- -- -- 95
2019-11-12 17:00:00 11.9 10 Sudoeste 22 Sudoeste -- -- -- 93
2019-11-12 16:00:00 10.5 0 Calma 3 Sudoeste -- -- -- 97
2019-11-12 15:00:00 10.1 0 Calma -- -- -- -- -- 97
2019-11-12 14:00:00 9.4 0 Calma -- -- -- -- -- 97
2019-11-12 13:00:00 8.6 0 Calma -- -- -- -- -- 96
2019-11-12 12:00:00 7.9 0 Calma -- -- -- -- -- 96
2019-11-12 11:00:00 7.3 0 Calma -- -- -- -- -- 96
2019-11-12 10:00:00 6.8 0 Calma -- -- -- -- -- 97
2019-11-12 09:00:00 6.1 0 Calma -- -- -- -- -- 97
2019-11-12 08:00:00 6 0 Calma 0 Calma -- -- -- 97
2019-11-12 07:00:00 5.9 0 Calma -- -- -- -- -- 97
2019-11-12 06:00:00 5.7 0 Calma -- -- -- -- -- 97
2019-11-12 05:00:00 5.5 0 Calma -- -- -- -- -- 97
2019-11-12 04:00:00 5.6 0 Calma -- -- -- -- -- 96
2019-11-12 03:00:00 5.5 0 Calma 3 Noroeste -- -- -- 97
2019-11-12 02:00:00 5.4 0 Calma 5 Norte -- -- -- 97
2019-11-12 01:00:00 5.4 0 Calma 4 Noroeste -- -- -- 97
2019-11-12 00:00:00 5 0 Calma 2 Nordeste -- -- -- 97
2019-11-11 23:00:00 4.8 0 Calma 5 Nordeste -- -- -- 93
2019-11-11 22:00:00 5.5 0 Calma 4 Norte -- -- -- 94
2019-11-11 21:00:00 5.8 0 Calma 5 Noroeste -- -- -- 91
2019-11-11 20:00:00 7.2 0 Calma 3 Noroeste -- -- -- 85
2019-11-11 19:00:00 9.1 0 Calma 8 Noroeste -- -- -- 83
2019-11-11 18:00:00 10.7 4 Norte 13 Norte -- -- -- 77
2019-11-11 17:00:00 12 9 Norte 26 Norte -- -- -- 69
2019-11-11 16:00:00 12.8 11 Norte 23 Norte -- -- -- 68
2019-11-11 15:00:00 13.7 11 Norte 26 Norte -- -- -- 71
2019-11-11 14:00:00 13.7 8 Norte 32 Norte -- -- -- 77
2019-11-11 13:00:00 12.7 14 Norte 30 Norte -- -- -- 84
2019-11-11 12:00:00 10.8 0 Calma 6 Sur -- -- -- 96
2019-11-11 11:00:00 8.7 0 Calma -- -- -- -- -- 98
2019-11-11 10:00:00 8 0 Calma -- -- -- -- -- 99
2019-11-11 09:00:00 7.8 0 Calma -- -- -- -- -- 99
2019-11-11 08:00:00 7.6 0 Calma -- -- -- -- -- 99
2019-11-11 07:00:00 7.6 0 Calma -- -- -- -- -- 98
2019-11-11 06:00:00 7.5 0 Calma 0 Calma -- -- -- 98
2019-11-11 05:00:00 7.4 0 Calma 0 Calma -- -- -- 98
2019-11-11 04:00:00 7.3 0 Calma 3 Norte -- -- -- 98
2019-11-11 03:00:00 7.3 0 Calma 3 Norte -- -- -- 98
2019-11-11 02:00:00 7.3 0 Calma 4 Norte -- -- -- 98
2019-11-11 01:00:00 7.4 2 Noroeste 5 Norte -- -- -- 98
2019-11-11 00:00:00 7.5 0 Calma 2 Sur -- -- -- 97